Location: Kopernik Observatory
(42.0014°N, 76.0372°W)
Time: 08:14:49
(UTC-04:00)

Daily predictions for brighter satellites

Satellite Brightness Start Highest point End
(mag) Time Altitude Azimuth Time Altitude Azimuth Time Altitude Azimuth
SAR-Lupe-1 4.2 19:16:57 10° SSE 19:20:25 54° ENE 19:23:55 10° N
NOSS 3 (A) 4.4 19:19:11 10° SSW 19:21:56 71° ESE 19:25:07 10° NE
Cosmos 1812 Rocket 3.8 19:20:40 10° SSW 19:24:58 76° W 19:29:21 10° N
Aureole 2 Rocket 3.5 19:21:41 10° S 19:25:42 36° ESE 19:29:42 10° NE
Cosmos 1624 Rocket 4.0 19:22:17 10° NNW 19:27:29 64° ENE 19:32:38 10° SSE
COSMOS 2455 4.3 19:24:40 10° WSW 19:30:16 39° NW 19:35:55 10° NNE
ATLAS CENTAUR R/B 3.7 19:27:35 10° SSW 19:32:15 51° ESE 19:45:59 10° NE
Meteor 1-22 Rocket 4.1 19:29:37 10° S 19:34:53 59° E 19:40:06 10° NNE
Cosmos 921 Rocket 4.5 19:32:19 10° NNW 19:36:17 40° W 19:40:12 10° S
Cosmos 2219 Rocket 3.5 19:32:03 10° SW 19:37:24 44° WNW 19:42:48 10° NNE
USA 215 3.3 19:31:50 10° NE 19:38:20 65° SE 19:44:48 10° SW
Cosmos 2233 Rocket 4.3 19:32:17 10° SSW 19:38:35 77° W 19:44:57 10° N
HJ-1C 3.8 19:36:06 10° SE 19:39:17 41° ENE 19:42:28 10° N
Cosmos 1441 Rocket 4.0 19:35:45 10° NNW 19:39:25 54° W 19:43:04 10° S
H-2A R/B 4.3 19:36:55 10° ESE 19:39:33 18° ENE 19:42:16 10° NNE
Cosmos 2278 Rocket 2.9 19:34:56 10° NNW 19:40:30 60° WSW 19:46:01 10° S
Meteor 2-5 Rocket 4.4 19:35:51 10° NNW 19:41:25 61° W 19:46:51 10° S
Meteor 1-29 3.7 19:40:06 10° NNE 19:43:18 31° E 19:46:26 10° SSE
TIMED 4.5 19:39:35 10° NNW 19:44:00 84° ENE 19:48:22 10° SSE
Timation 1 Rocket 4.5 19:38:11 10° NNW 19:44:03 55° ENE 19:49:54 10° SE
Cosmos 2297 3.7 19:38:30 10° NNW 19:44:12 74° ENE 19:49:49 10° SSE
METEOR-M 4.1 19:39:15 10° SSE 19:44:31 65° ENE 19:49:50 10° N
Meteor 1-24 Rocket 3.7 19:40:21 10° N 19:46:04 85° E 19:51:33 10° S
Meteor 1-28 Rocket 3.1 19:42:26 10° NNE 19:46:10 86° ESE 19:49:53 10° SSW
Cosmos 1378 3.0 19:43:50 10° N 19:47:34 67° E 19:51:16 10° SSE
Cosmos 1707 4.0 19:46:29 10° NNW 19:50:12 45° W 19:53:52 10° SSW
FENGYUN 3A 4.2 19:45:59 10° SE 19:50:54 38° ENE 19:55:50 10° N
Cosmos 1076 Rocket 3.6 19:47:26 10° N 19:51:41 53° E 19:55:55 10° SSE
SJ-6B 3.3 19:47:48 10° S 19:51:44 67° W 19:55:46 10° NNW
Cosmos 1544 4.4 19:50:01 10° SE 19:52:50 21° E 19:55:40 10° NE
Cosmos-2242 3.6 19:51:52 10° SSE 19:55:47 34° E 19:59:45 10° NNE
Cosmos 1452 Rocket 3.8 19:51:38 10° N 19:56:43 46° ENE 20:01:27 11° SE
ATLAS 3B R/B 4.3 19:50:01 10° WSW 19:56:58 37° NW 20:03:43 10° NNE
Cosmos 1758 3.7 19:55:43 10° SSE 19:59:32 40° E 20:03:23 10° NNE
Cosmos 2369 Rocket 3.8 19:56:03 10° N 19:59:46 17° NE 20:01:48 15° ENE
Helios 1B rocket 2.3 19:55:51 10° NNE 19:59:58 67° ESE 20:04:02 10° S
Cosmos 192 4.3 19:56:11 10° S 20:01:04 63° ESE 20:06:00 10° NNE
Cosmos 1603 4.3 19:57:34 10° SSE 20:02:35 33° ESE 20:07:39 10° NE
SeaSat 1 3.3 19:58:55 10° NE 20:03:07 27° ESE 20:07:17 10° SSE
Cosmos 1408 Rocket 3.5 20:00:33 10° N 20:04:54 66° E 20:09:12 10° SSE
Resurs 01 Rocket 1.7 20:04:35 10° SSE 20:09:02 83° WSW 20:13:32 10° NNW
Cosmos 1943 Rocket 4.2 20:10:07 10° NNE 20:11:01 10° NE 20:11:57 10° NE
NOSS 3-2 (A) 3.4 20:05:43 10° SSW 20:11:47 85° SE 20:18:26 10° NE
FengYun 1-2 T 4.1 20:06:40 10° SSE 20:12:11 79° ENE 20:17:42 10° NNW
Cosmos 2333 Rocket 4.1 20:07:34 10° WSW 20:12:41 32° NW 20:17:49 10° N
Resurs 1-3 3.5 20:08:43 10° SSE 20:13:06 85° E 20:17:31 10° NNW
CZ-4B DEB 2.8 20:15:36 26° SSE 20:17:12 60° ENE 20:20:27 10° N
Cosmos 1420 Rocket 4.4 20:15:46 10° N 20:20:48 42° ENE 20:23:00 28° ESE
Atlas Centaur 2 4.2 20:16:54 10° WSW 20:23:55 29° SSW 20:28:58 15° SSE
ATLAS CENTAUR R/B 3.3 20:20:36 10° NW 20:24:09 27° WSW 20:27:28 10° S
Meteor 1-21 Rocket 4.1 20:20:08 10° N 20:25:43 71° E 20:31:12 10° SSE
ALOS 2.2 20:26:11 10° SSE 20:30:51 89° ENE 20:35:33 10° NNW
Cosmos 1743 Rocket 3.5 20:27:14 10° N 20:31:40 61° E 20:33:29 33° SSE
In-Cosmos 22 4.4 20:26:23 10° NNW 20:32:10 76° W 20:37:54 10° S
Cosmos 1674 3.2 20:29:01 10° N 20:32:23 40° ENE 20:32:23 40° ENE
Nadezhda 4 Rocket 3.9 20:26:30 10° N 20:32:48 70° E 20:38:48 11° SSE
Cosmos 1269 Rocket 4.1 20:28:36 10° S 20:33:39 49° ESE 20:38:44 10° NNE
CZ-4B DEB 4.5 20:34:16 57° ESE 20:34:42 64° ENE 20:38:17 10° N
Cosmos 1092 Rocket 4.0 20:31:37 10° N 20:37:44 55° E 20:40:56 28° SE
GP-B 3.6 20:35:35 10° NNE 20:39:11 39° ENE 20:39:11 39° ENE
Cosmos 1048 Rocket 4.2 20:35:29 10° S 20:40:34 48° ESE 20:45:37 10° NNE
OAO 3 Rocket 3.9 20:41:16 10° WSW 20:45:39 36° S 20:46:04 35° SSE
NOSS 3-2 (C) 3.7 20:42:44 10° SW 20:48:49 70° NW 20:55:30 10° NNE
Envisat 3.7 20:50:02 36° ENE 20:50:02 36° ENE 20:54:18 10° N
CZ-4C R/B 4.3 20:46:10 10° W 20:50:44 25° NW 20:55:48 10° NNE
ASTEX 1 3.4 20:46:51 10° N 20:51:48 82° W 20:56:41 10° S
CENTAUR R/B 3.8 20:46:43 10° S 21:00:34 - NE 20:48:51 21° SSE
Cosmos 1634 Rocket 4.0 20:49:15 30° SSE 20:52:12 53° E 20:58:13 10° NNE
ATLAS 5 CENTAUR R/B 2.0 20:48:09 10° SW 20:52:55 71° NW 20:58:08 10° NNE
CZ-2D R/B 3.8 20:52:08 31° SSW 20:53:47 57° W 20:57:39 10° NNW
Cosmos 2026 Rocket 4.3 20:48:45 10° N 20:54:30 42° ENE 20:54:38 41° E
Cosmos 1953 3.6 20:51:21 10° SSW 20:55:07 41° WNW 20:58:55 10° N
SL-16 R/B 3.8 20:54:26 10° WSW 20:59:36 35° WNW 21:04:48 10° N
H-2A R/B 4.1 21:14:40 19° NNE 21:14:40 19° NNE 21:16:11 10° N
SJ-11-01 4.4 21:14:09 68° N 21:14:09 68° N 21:18:17 10° N
H-2A R/B 4.3 21:12:11 25° SW 21:13:37 34° W 21:17:12 10° NNW
Cosmos 2195 Rocket 4.4 21:09:40 10° N 21:16:00 71° E 21:16:42 65° ESE
USA 215 4.2 21:15:01 10° NE 21:21:10 45° NNW 21:27:16 10° W
ERS-1 Rocket 3.3 21:34:40 62° NW 21:34:40 62° NW 21:38:57 10° NNW
Cosmos 1627 Rocket 4.4 21:30:23 10° N 21:36:36 82° W 21:36:58 78° SSW
SeaSat 1 3.6 21:36:06 10° NNE 21:40:44 41° NW 21:45:20 10° SW
Cosmos 2369 Rocket 2.5 21:38:49 10° NNW 21:43:36 64° NW 21:43:36 64° NW
Cosmos 839 Rocket 4.1 21:41:38 10° NNW 21:49:20 85° WSW 21:49:20 85° WSW
Cosmos 1943 Rocket 3.4 21:50:33 10° NNW 21:53:53 34° N 21:53:53 34° N
